Change the Weather History Date:

Saturday, October 27, 2012

  Actual Average (KMML) Record (KMML)
Temperature  
Mean Temperature 34 °F -  
Max Temperature 43 °F 58 °F 81 °F (1983)
Min Temperature 26 °F 35 °F 12 °F (1976)
Degree Days  
Heating Degree Days 31    
Moisture  
Dew Point 27 °F    
Average Humidity 75    
Maximum Humidity 92    
Minimum Humidity 49    
Precipitation  
Precipitation 0.00 in - - ()
Sea Level Pressure  
Sea Level Pressure 30.30 in    
Wind  
Wind Speed 8 mph (SSW)    
Max Wind Speed 14 mph    
Max Gust Speed 18 mph    
Visibility 10 miles    
Events      
Averages and records for this station are not official NWS values.
T = Trace of Precipitation, MM = Missing Value Source: NWS Daily Summary

Daily Weather History Graph

Daily Weather History Graph

Search for Another Location

Airport or City:

Trip Planner

Search our weather history database for the weather conditions in past years. The results will help you decide how hot, cold, wet, or windy it might be!

Date:

Astronomy

Oct. 27, 2012 Rise Set
Actual Time 7:56 AM CDT 6:20 PM CDT
Civil Twilight 7:26 AM CDT 6:50 PM CDT
Nautical Twilight 6:52 AM CDT 7:24 PM CDT
Astronomical Twilight 6:18 AM CDT 7:58 PM CDT
Moon 5:09 PM CDT (10/27) 5:49 AM CDT (10/27)
Length of Visible Light 11h 23m
Length of Day
10h 23m
Waxing Gibbous, 96% of the Moon is Illuminated
Oct 27
Waxing Gibbous
Oct 29
Full
Nov 6
Last Quarter
Nov 13
New
Nov 20
First Quarter

Hourly Weather History & Observations

Time (CDT) Temp. Windchill Dew Point Humidity Pressure Visibility Wind Dir Wind Speed Gust Speed Precip Events Conditions
12:14 AM 32.2 °F 25.0 °F 25.2 °F 75% 30.34 in 10.0 mi SW 8.1 mph - N/A   Overcast
12:35 AM 32.2 °F 24.4 °F 24.8 °F 74% 30.34 in 10.0 mi SW 9.2 mph - N/A   Overcast
12:54 AM 32.0 °F 24.2 °F 24.8 °F 75% 30.33 in 10.0 mi SW 9.2 mph - N/A   Overcast
1:15 AM 32.0 °F 24.2 °F 24.8 °F 75% 30.33 in 10.0 mi SW 9.2 mph - N/A   Overcast
1:35 AM 32.0 °F 23.6 °F 25.2 °F 76% 30.33 in 10.0 mi SW 10.4 mph - N/A   Overcast
1:54 AM 32.0 °F 24.8 °F 25.5 °F 77% 30.32 in 10.0 mi SW 8.1 mph - N/A   Mostly Cloudy
2:14 AM 31.1 °F 24.5 °F 25.0 °F 78% 30.32 in 10.0 mi SW 6.9 mph - N/A   Scattered Clouds
2:35 AM 30.6 °F 23.8 °F 25.3 °F 81% 30.32 in 10.0 mi SW 6.9 mph - N/A   Clear
2:54 AM 30.4 °F 22.2 °F 25.3 °F 82% 30.32 in 10.0 mi SW 9.2 mph - N/A   Clear
3:14 AM 30.0 °F 24.1 °F 25.3 °F 83% 30.32 in 10.0 mi WSW 5.8 mph - N/A   Mostly Cloudy
3:35 AM 29.5 °F 23.4 °F 25.3 °F 85% 30.32 in 10.0 mi SW 5.8 mph - N/A   Scattered Clouds
3:55 AM 29.3 °F 22.3 °F 25.2 °F 85% 30.32 in 10.0 mi WSW 6.9 mph - N/A   Clear
4:14 AM 28.8 °F 21.7 °F 25.2 °F 86% 30.32 in 10.0 mi SW 6.9 mph - N/A   Clear
4:35 AM 28.2 °F 20.2 °F 24.8 °F 87% 30.32 in 10.0 mi SW 8.1 mph - N/A   Clear
4:55 AM 27.9 °F 19.1 °F 24.8 °F 88% 30.32 in 10.0 mi WSW 9.2 mph - N/A   Clear
5:14 AM 27.7 °F 19.6 °F 24.8 °F 89% 30.32 in 10.0 mi SW 8.1 mph - N/A   Clear
5:35 AM 27.3 °F 19.1 °F 24.8 °F 90% 30.32 in 10.0 mi WSW 8.1 mph - N/A   Clear
5:54 AM 27.3 °F 19.9 °F 24.8 °F 90% 30.32 in 10.0 mi WSW 6.9 mph - N/A   Clear
6:14 AM 26.6 °F 19.1 °F 24.6 °F 92% 30.32 in 10.0 mi SW 6.9 mph - N/A   Clear
6:55 AM 27.0 °F 19.5 °F 24.8 °F 92% 30.32 in 10.0 mi SW 6.9 mph - N/A   Clear
7:15 AM 26.6 °F 20.0 °F 24.4 °F 92% 30.32 in 10.0 mi SW 5.8 mph - N/A   Clear
7:34 AM 27.0 °F 19.5 °F 24.4 °F 90% 30.33 in 10.0 mi SW 6.9 mph - N/A   Clear
7:54 AM 26.6 °F 21.2 °F 23.9 °F 90% 30.32 in 10.0 mi SW 4.6 mph - N/A   Clear
8:15 AM 26.6 °F 21.2 °F 24.1 °F 90% 30.33 in 10.0 mi SW 4.6 mph - N/A   Clear
8:34 AM 27.7 °F 21.3 °F 24.6 °F 88% 30.33 in 10.0 mi SW 5.8 mph - N/A   Clear
8:55 AM 28.6 °F 22.4 °F 24.8 °F 86% 30.34 in 10.0 mi SW 5.8 mph - N/A   Clear
9:15 AM 30.0 °F 24.1 °F 25.5 °F 83% 30.35 in 10.0 mi SW 5.8 mph - N/A   Clear
9:35 AM 32.0 °F 27.5 °F 25.7 °F 78% 30.35 in 10.0 mi SW 4.6 mph - N/A   Clear
9:54 AM 32.5 °F 27.1 °F 25.5 °F 75% 30.35 in 10.0 mi SSW 5.8 mph - N/A   Clear
10:35 AM 35.1 °F 29.3 °F 26.1 °F 70% 30.34 in 10.0 mi SSW 6.9 mph - N/A   Clear
10:54 AM 36.7 °F 29.9 °F 26.6 °F 67% 30.34 in 10.0 mi SW 9.2 mph - N/A   Clear
11:14 AM 37.8 °F 29.8 °F 26.4 °F 64% 30.34 in 10.0 mi SW 12.7 mph - N/A   Scattered Clouds
11:35 AM 38.3 °F 30.1 °F 24.8 °F 58% 30.33 in 10.0 mi SSW 13.8 mph 18.4 mph N/A   Overcast
11:55 AM 37.9 °F 29.6 °F 24.3 °F 58% 30.33 in 10.0 mi SW 13.8 mph 18.4 mph N/A   Overcast
12:14 PM 39.7 °F 32.7 °F 24.8 °F 55% 30.32 in 10.0 mi South 11.5 mph 17.3 mph N/A   Overcast
12:34 PM 40.5 °F 33.6 °F 24.8 °F 54% 30.32 in 10.0 mi South 11.5 mph - N/A   Scattered Clouds
12:55 PM 40.6 °F 35.4 °F 24.4 °F 53% 30.31 in 10.0 mi SSW 8.1 mph - N/A   Scattered Clouds
1:14 PM 41.2 °F 35.0 °F 24.3 °F 51% 30.30 in 10.0 mi SSW 10.4 mph - N/A   Scattered Clouds
1:34 PM 41.7 °F 35.6 °F 23.5 °F 49% 30.29 in 10.0 mi SSW 10.4 mph - N/A   Scattered Clouds
1:55 PM 42.3 °F 38.6 °F 24.6 °F 50% 30.28 in 10.0 mi South 5.8 mph - N/A   Scattered Clouds
2:14 PM 42.3 °F 35.9 °F 25.9 °F 52% 30.27 in 10.0 mi South 11.5 mph - N/A   Clear
2:35 PM 41.9 °F 37.5 °F 26.8 °F 55% 30.27 in 10.0 mi SSW 6.9 mph - N/A   Clear
2:54 PM 41.9 °F 38.2 °F 26.8 °F 55% 30.26 in 10.0 mi SSW 5.8 mph - N/A   Clear
3:14 PM 42.1 °F 37.1 °F 27.1 °F 55% 30.25 in 10.0 mi SSE 8.1 mph - N/A   Clear
3:35 PM 41.4 °F 35.7 °F 27.7 °F 58% 30.25 in 10.0 mi South 9.2 mph - N/A   Clear
3:54 PM 41.4 °F 36.2 °F 28.0 °F 59% 30.25 in 10.0 mi South 8.1 mph - N/A   Clear
4:15 PM 40.5 °F 35.8 °F 28.0 °F 61% 30.25 in 10.0 mi South 6.9 mph - N/A   Clear
4:35 PM 40.3 °F 35.5 °F 28.9 °F 64% 30.25 in 10.0 mi SSE 6.9 mph - N/A   Clear
4:54 PM 40.1 °F 34.7 °F 29.1 °F 65% 30.24 in 10.0 mi SSE 8.1 mph - N/A   Clear
5:15 PM 39.7 °F 34.3 °F 29.3 °F 66% 30.24 in 10.0 mi SSE 8.1 mph - N/A   Clear
5:34 PM 39.4 °F 32.7 °F 29.3 °F 67% 30.24 in 10.0 mi SE 10.4 mph - N/A   Scattered Clouds
5:55 PM 38.7 °F 32.9 °F 29.5 °F 70% 30.24 in 10.0 mi SSE 8.1 mph - N/A   Mostly Cloudy
6:14 PM 38.1 °F 33.7 °F 29.8 °F 72% 30.25 in 10.0 mi SSE 5.8 mph - N/A   Overcast
6:35 PM 37.6 °F 33.1 °F 29.8 °F 74% 30.25 in 10.0 mi SSE 5.8 mph - N/A   Overcast
6:54 PM 36.9 °F 33.1 °F 29.8 °F 76% 30.26 in 10.0 mi SSE 4.6 mph - N/A   Overcast
7:15 PM 35.4 °F 31.5 °F 29.8 °F 80% 30.26 in 10.0 mi SSE 4.6 mph - N/A   Overcast
7:34 PM 36.0 °F 31.1 °F 30.0 °F 79% 30.27 in 10.0 mi SSE 5.8 mph - N/A   Overcast
7:55 PM 35.8 °F 30.9 °F 30.2 °F 80% 30.27 in 10.0 mi SE 5.8 mph - N/A   Overcast
8:15 PM 35.6 °F 29.9 °F 30.2 °F 81% 30.27 in 10.0 mi SSE 6.9 mph - N/A   Overcast
8:34 PM 35.6 °F 30.7 °F 30.2 °F 81% 30.27 in 10.0 mi SE 5.8 mph - N/A   Overcast
8:55 PM 35.1 °F 31.0 °F 30.2 °F 82% 30.27 in 10.0 mi SSE 4.6 mph - N/A   Overcast
9:14 PM 34.9 °F 30.8 °F 30.2 °F 83% 30.27 in 10.0 mi SSE 4.6 mph - N/A   Overcast
9:55 PM 34.7 °F 30.6 °F 30.2 °F 84% 30.27 in 10.0 mi SSE 4.6 mph - N/A   Overcast
10:34 PM 34.7 °F 29.6 °F 30.2 °F 84% 30.28 in 10.0 mi SSE 5.8 mph - N/A   Overcast
10:54 PM 34.9 °F 29.9 °F 30.6 °F 84% 30.27 in 10.0 mi SE 5.8 mph - N/A   Overcast
11:15 PM 34.3 °F 30.2 °F 30.6 °F 86% 30.27 in 10.0 mi SE 4.6 mph - N/A   Overcast
11:34 PM 34.2 °F 31.2 °F 30.6 °F 87% 30.27 in 10.0 mi SE 3.5 mph - N/A   Overcast
11:54 PM 34.0 °F 31.0 °F 30.7 °F 88% 30.27 in 10.0 mi SE 3.5 mph - N/A   Overcast